TimeMST,TemperatureF,Dew PointF,Humidity,Sea Level PressureIn,VisibilityMPH,Wind Direction,Wind SpeedMPH,Gust SpeedMPH,PrecipitationIn,Events,Conditions,WindDirDegrees,DateUTC
12:55 AM,64.9,44.1,47,30.09,10.0,NNW,4.6,-,N/A,,Scattered Clouds,330,2012-12-05 07:55:00
1:55 AM,62.1,44.1,52,30.08,10.0,NNW,3.5,-,N/A,,Scattered Clouds,340,2012-12-05 08:55:00
2:55 AM,62.1,44.1,52,30.08,10.0,NNE,5.8,-,N/A,,Scattered Clouds,30,2012-12-05 09:55:00
3:55 AM,60.1,43.0,53,30.07,10.0,NNE,3.5,-,N/A,,Scattered Clouds,20,2012-12-05 10:55:00
4:55 AM,59.0,43.0,55,30.05,10.0,North,3.5,-,N/A,,Scattered Clouds,350,2012-12-05 11:55:00
5:55 AM,59.0,43.0,55,30.04,10.0,NE,3.5,-,N/A,,Scattered Clouds,50,2012-12-05 12:55:00
7:55 AM,59.0,43.0,55,30.06,10.0,ENE,3.5,-,N/A,,Mostly Cloudy,60,2012-12-05 14:55:00
8:55 AM,64.0,43.0,46,30.08,10.0,NNE,6.9,-,N/A,,Mostly Cloudy,30,2012-12-05 15:55:00
9:55 AM,68.0,44.1,42,30.08,10.0,ENE,4.6,-,N/A,,Scattered Clouds,60,2012-12-05 16:55:00
10:55 AM,72.0,44.1,37,30.07,10.0,NNE,5.8,-,N/A,,Scattered Clouds,20,2012-12-05 17:55:00
11:55 AM,77.0,44.1,31,30.04,10.0,NNE,5.8,-,N/A,,Mostly Cloudy,30,2012-12-05 18:55:00
12:55 PM,80.1,43.0,27,30.00,10.0,NNE,4.6,-,N/A,,Mostly Cloudy,20,2012-12-05 19:55:00
1:55 PM,80.6,42.8,26,29.96,10.0,Calm,Calm,-,N/A,,Smoke,0,2012-12-05 20:55:00
2:55 PM,82.4,39.2,21,29.94,10.0,NNW,4.6,-,N/A,,Smoke,340,2012-12-05 21:55:00
3:55 PM,82.9,39.9,22,29.93,10.0,NW,4.6,-,N/A,,Mostly Cloudy,320,2012-12-05 22:55:00
4:55 PM,79.0,41.0,26,29.91,9.0,West,3.5,-,N/A,,Mostly Cloudy,270,2012-12-05 23:55:00
5:55 PM,75.0,43.0,32,29.91,10.0,WSW,3.5,-,N/A,,Mostly Cloudy,250,2012-12-06 00:55:00
6:55 PM,70.0,43.0,38,29.92,10.0,Calm,Calm,-,N/A,,Mostly Cloudy,0,2012-12-06 01:55:00
7:55 PM,70.0,43.0,38,29.93,10.0,WSW,4.6,-,N/A,,Mostly Cloudy,250,2012-12-06 02:55:00
8:55 PM,66.9,43.0,42,29.93,10.0,WNW,3.5,-,N/A,,Mostly Cloudy,300,2012-12-06 03:55:00
9:55 PM,64.0,43.0,46,29.93,10.0,Calm,Calm,-,N/A,,Scattered Clouds,0,2012-12-06 04:55:00
10:55 PM,63.0,44.1,50,29.93,10.0,Calm,Calm,-,N/A,,Scattered Clouds,0,2012-12-06 05:55:00
11:55 PM,61.0,45.0,56,29.92,10.0,SSE,3.5,-,N/A,,Scattered Clouds,150,2012-12-06 06:55:00